| time (UTC) | temp F | wind direction | speed MPH | gust MPH | rain 1hr in | rain 24hr in | rain mn in | humidity % | barometer mb |
| 20260507044628 | 43 | 337 | 0.0 | 2.0 | 0.00 | 0.00 | 0.00 | 52 | 1007.5 |
| 20260507044129 | 42 | 157 | 0.0 | 0.0 | 0.00 | 0.00 | 0.00 | 53 | 1007.5 |
| 20260507043628 | 42 | 157 | 0.0 | 0.0 | 0.00 | 0.00 | 0.00 | 54 | 1007.5 |
| 20260507043129 | 41 | 135 | 0.0 | 0.0 | 0.00 | 0.00 | 0.00 | 55 | 1007.5 |
| 20260507042628 | 40 | 157 | 0.0 | 0.0 | 0.00 | 0.00 | 0.00 | 56 | 1007.6 |
| 20260507042129 | 39 | 157 | 0.0 | 0.0 | 0.00 | 0.00 | 0.00 | 56 | 1007.5 |
| 20260507041629 | 38 | 157 | 0.0 | 0.0 | 0.00 | 0.00 | 0.00 | 57 | 1007.5 |
| 20260507041129 | 37 | 157 | 0.0 | 0.0 | 0.00 | 0.00 | 0.00 | 58 | 1007.5 |
| 20260507040629 | 37 | 135 | 0.0 | 0.0 | 0.00 | 0.00 | 0.00 | 58 | 1007.5 |
| 20260507040129 | 37 | 135 | 0.0 | 0.0 | 0.00 | 0.00 | 0.00 | 58 | 1007.4 |
| 20260507035629 | 36 | 135 | 0.0 | 0.0 | 0.00 | 0.00 | 0.00 | 59 | 1007.4 |
| 20260507035129 | 36 | 135 | 0.0 | 0.0 | 0.00 | 0.00 | 0.00 | 60 | 1007.5 |
| 20260507034629 | 35 | 157 | 0.0 | 0.0 | 0.00 | 0.00 | 0.00 | 60 | 1007.6 |
| 20260507034129 | 35 | 157 | 0.0 | 0.0 | 0.00 | 0.00 | 0.00 | 61 | 1007.6 |
| 20260507033629 | 34 | 157 | 0.0 | 0.0 | 0.00 | 0.00 | 0.00 | 61 | 1007.5 |
| 20260507033129 | 34 | 157 | 0.0 | 0.0 | 0.00 | 0.00 | 0.00 | 61 | 1007.5 |
| 20260507032629 | 33 | 157 | 0.0 | 0.0 | 0.00 | 0.00 | 0.00 | 62 | 1007.5 |
| 20260507032129 | 33 | 157 | 0.0 | 0.0 | 0.00 | 0.00 | 0.00 | 62 | 1007.5 |
| 20260507031629 | 32 | 157 | 0.0 | 0.0 | 0.00 | 0.00 | 0.00 | 62 | 1007.5 |
| 20260507031129 | 32 | 157 | 0.0 | 0.0 | 0.00 | 0.00 | 0.00 | 62 | 1007.4 |
| 20260507030629 | 31 | 157 | 0.0 | 0.0 | 0.00 | 0.00 | 0.00 | 62 | 1007.4 |
| 20260507030129 | 31 | 157 | 0.0 | 0.0 | 0.00 | 0.00 | 0.00 | 62 | 1007.3 |
| 20260507025629 | 31 | 157 | 0.0 | 0.0 | 0.00 | 0.00 | 0.00 | 62 | 1007.3 |
| 20260507025129 | 31 | 157 | 0.0 | 0.0 | 0.00 | 0.00 | 0.00 | 62 | 1007.2 |
| 20260507024629 | 31 | 157 | 0.0 | 0.0 | 0.00 | 0.00 | 0.00 | 62 | 1007.3 |
| 20260507024129 | 31 | 157 | 0.0 | 0.0 | 0.00 | 0.00 | 0.00 | 62 | 1007.3 |
| 20260507023629 | 31 | 157 | 0.0 | 0.0 | 0.00 | 0.00 | 0.00 | 62 | 1007.4 |
| 20260507023129 | 31 | 157 | 0.0 | 0.0 | 0.00 | 0.00 | 0.00 | 61 | 1007.3 |
| 20260507022629 | 31 | 157 | 0.0 | 0.0 | 0.00 | 0.00 | 0.00 | 61 | 1007.4 |
| 20260507022129 | 31 | 157 | 0.0 | 0.0 | 0.00 | 0.00 | 0.00 | 61 | 1007.3 |
| 20260507021629 | 31 | 157 | 0.0 | 0.0 | 0.00 | 0.00 | 0.00 | 61 | 1007.4 |
| 20260507021129 | 31 | 157 | 0.0 | 0.0 | 0.00 | 0.00 | 0.00 | 61 | 1007.3 |
| 20260507020629 | 31 | 157 | 0.0 | 0.0 | 0.00 | 0.00 | 0.00 | 60 | 1007.4 |
| 20260507020129 | 31 | 157 | 0.0 | 0.0 | 0.00 | 0.00 | 0.00 | 60 | 1007.3 |
| 20260507015629 | 31 | 157 | 0.0 | 0.0 | 0.00 | 0.00 | 0.00 | 60 | 1007.3 |
| 20260507015129 | 31 | 157 | 0.0 | 0.0 | 0.00 | 0.00 | 0.00 | 60 | 1007.2 |
| 20260507014629 | 31 | 157 | 0.0 | 0.0 | 0.00 | 0.00 | 0.00 | 59 | 1007.2 |
| 20260507014129 | 31 | 157 | 0.0 | 0.0 | 0.00 | 0.00 | 0.00 | 59 | 1007.2 |
| 20260507013629 | 31 | 157 | 0.0 | 0.0 | 0.00 | 0.00 | 0.00 | 59 | 1007.2 |
| 20260507013129 | 31 | 157 | 0.0 | 0.0 | 0.00 | 0.00 | 0.00 | 58 | 1007.3 |
| 20260507012629 | 32 | 157 | 0.0 | 0.0 | 0.00 | 0.00 | 0.00 | 58 | 1007.2 |
| 20260507012129 | 32 | 157 | 0.0 | 0.0 | 0.00 | 0.00 | 0.00 | 58 | 1007.2 |
| 20260507011629 | 32 | 157 | 0.0 | 0.0 | 0.00 | 0.00 | 0.00 | 58 | 1007.2 |
| 20260507011129 | 32 | 67 | 0.0 | 0.0 | 0.00 | 0.00 | 0.00 | 58 | 1007.2 |
| 20260507010629 | 32 | 157 | 0.0 | 0.0 | 0.00 | 0.00 | 0.00 | 57 | 1007.2 |
| 20260507010129 | 33 | 157 | 0.0 | 0.0 | 0.00 | 0.00 | 0.00 | 57 | 1007.1 |
| 20260507005629 | 33 | 157 | 0.0 | 0.0 | 0.00 | 0.00 | 0.00 | 57 | 1007.2 |
| 20260507005129 | 33 | 157 | 0.0 | 0.0 | 0.00 | 0.00 | 0.00 | 57 | 1007.2 |
| 20260507004629 | 33 | 157 | 0.0 | 0.0 | 0.00 | 0.00 | 0.00 | 57 | 1007.1 |
| 20260507004129 | 34 | 157 | 0.0 | 0.0 | 0.00 | 0.00 | 0.00 | 57 | 1007.2 |
| 20260507003629 | 34 | 157 | 0.0 | 0.0 | 0.00 | 0.00 | 0.00 | 57 | 1007.2 |
| 20260507003129 | 34 | 157 | 0.0 | 0.0 | 0.00 | 0.00 | 0.00 | 57 | 1007.2 |
| 20260507002629 | 34 | 157 | 0.0 | 0.0 | 0.00 | 0.00 | 0.00 | 57 | 1007.2 |
| 20260507002129 | 34 | 135 | 0.0 | 0.0 | 0.00 | 0.00 | 0.00 | 57 | 1007.1 |
| 20260507001629 | 34 | 135 | 0.0 | 0.0 | 0.00 | 0.00 | 0.00 | 58 | 1007.2 |
| 20260507001129 | 34 | 135 | 0.0 | 0.0 | 0.00 | 0.00 | 0.00 | 58 | 1006.9 |
| 20260507000629 | 34 | 135 | 0.0 | 0.0 | 0.00 | 0.00 | 0.00 | 58 | 1007.1 |
| 20260507000129 | 34 | 135 | 0.0 | 0.0 | 0.00 | 0.00 | 0.00 | 58 | 1007.2 |
| 20260506235629 | 34 | 135 | 0.0 | 0.0 | 0.00 | 0.00 | 0.00 | 58 | 1007.2 |
| 20260506235129 | 34 | 135 | 0.0 | 0.0 | 0.00 | 0.00 | 0.00 | 58 | 1007.1 |
| 20260506234629 | 34 | 135 | 0.0 | 0.0 | 0.00 | 0.00 | 0.00 | 58 | 1007.0 |
| 20260506234129 | 34 | 135 | 0.0 | 0.0 | 0.00 | 0.00 | 0.00 | 59 | 1007.1 |
| 20260506233629 | 34 | 292 | 0.0 | 0.0 | 0.00 | 0.00 | 0.00 | 59 | 1007.0 |
| 20260506233129 | 34 | 315 | 0.0 | 0.0 | 0.00 | 0.00 | 0.00 | 59 | 1006.9 |
| 20260506232629 | 34 | 315 | 0.0 | 0.0 | 0.00 | 0.00 | 0.00 | 59 | 1006.9 |
| 20260506232129 | 34 | 315 | 0.0 | 0.0 | 0.00 | 0.00 | 0.00 | 60 | 1006.9 |
| 20260506231629 | 35 | 315 | 0.0 | 0.0 | 0.00 | 0.00 | 0.00 | 60 | 1006.9 |
| 20260506231129 | 35 | 315 | 0.0 | 0.0 | 0.00 | 0.00 | 0.00 | 60 | 1006.9 |
| 20260506230629 | 35 | 315 | 0.0 | 0.0 | 0.00 | 0.00 | 0.00 | 60 | 1007.0 |
| 20260506230129 | 35 | 315 | 0.0 | 0.0 | 0.00 | 0.00 | 0.00 | 61 | 1006.9 |
| 20260506225629 | 35 | 315 | 0.0 | 0.0 | 0.00 | 0.00 | 0.00 | 61 | 1006.9 |
| 20260506225129 | 35 | 315 | 0.0 | 0.0 | 0.00 | 0.00 | 0.00 | 61 | 1007.0 |
| 20260506224629 | 35 | 315 | 0.0 | 0.0 | 0.00 | 0.00 | 0.00 | 62 | 1006.9 |
| 20260506224130 | 35 | 315 | 0.0 | 0.0 | 0.00 | 0.00 | 0.00 | 63 | 1006.9 |
| 20260506223630 | 35 | 315 | 0.0 | 0.0 | 0.00 | 0.00 | 0.00 | 64 | 1006.8 |
| 20260506223129 | 35 | 315 | 0.0 | 0.0 | 0.00 | 0.00 | 0.00 | 64 | 1006.9 |
| 20260506222630 | 35 | 315 | 0.0 | 0.0 | 0.00 | 0.00 | 0.00 | 65 | 1006.8 |
| 20260506222130 | 35 | 315 | 0.0 | 0.0 | 0.00 | 0.00 | 0.00 | 66 | 1006.8 |
| 20260506221630 | 35 | 315 | 0.0 | 0.0 | 0.00 | 0.00 | 0.00 | 67 | 1006.8 |
| 20260506221130 | 35 | 315 | 0.0 | 0.0 | 0.00 | 0.00 | 0.00 | 68 | 1006.8 |
| 20260506220630 | 34 | 315 | 0.0 | 0.0 | 0.00 | 0.00 | 0.00 | 69 | 1006.8 |
| 20260506220130 | 34 | 315 | 0.0 | 0.0 | 0.00 | 0.00 | 0.00 | 69 | 1006.8 |
| 20260506215630 | 34 | 315 | 0.0 | 0.0 | 0.00 | 0.00 | 0.00 | 69 | 1006.6 |
| 20260506215130 | 34 | 315 | 0.0 | 0.0 | 0.00 | 0.00 | 0.00 | 69 | 1006.6 |
| 20260506214630 | 33 | 315 | 0.0 | 0.0 | 0.00 | 0.00 | 0.00 | 69 | 1006.5 |
| 20260506214130 | 33 | 315 | 0.0 | 0.0 | 0.00 | 0.00 | 0.00 | 69 | 1006.5 |
| 20260506213630 | 34 | 315 | 0.0 | 0.0 | 0.00 | 0.00 | 0.00 | 68 | 1006.6 |
| 20260506213130 | 34 | 315 | 0.0 | 0.0 | 0.00 | 0.00 | 0.00 | 68 | 1006.4 |
| 20260506212630 | 34 | 315 | 0.0 | 0.0 | 0.00 | 0.00 | 0.00 | 68 | 1006.4 |
| 20260506212130 | 34 | 315 | 0.0 | 0.0 | 0.00 | 0.00 | 0.00 | 67 | 1006.6 |
| 20260506211630 | 34 | 315 | 0.0 | 0.0 | 0.00 | 0.00 | 0.00 | 66 | 1006.5 |
| 20260506211130 | 34 | 315 | 0.0 | 0.0 | 0.00 | 0.00 | 0.00 | 66 | 1006.4 |
| 20260506210630 | 34 | 315 | 0.0 | 0.0 | 0.00 | 0.00 | 0.00 | 66 | 1006.4 |
| 20260506210130 | 34 | 315 | 0.0 | 0.0 | 0.00 | 0.00 | 0.00 | 66 | 1006.4 |
| 20260506205630 | 34 | 315 | 0.0 | 0.0 | 0.00 | 0.00 | 0.00 | 64 | 1006.3 |
| 20260506205131 | 34 | 315 | 0.0 | 0.0 | 0.00 | 0.00 | 0.00 | 64 | 1006.3 |
| 20260506204630 | 34 | 315 | 0.0 | 0.0 | 0.00 | 0.00 | 0.00 | 64 | 1006.4 |
| 20260506204130 | 35 | 315 | 0.0 | 0.0 | 0.00 | 0.00 | 0.00 | 64 | 1006.3 |
| 20260506203630 | 35 | 315 | 0.0 | 0.0 | 0.00 | 0.00 | 0.00 | 63 | 1006.3 |
| 20260506203130 | 35 | 315 | 0.0 | 0.0 | 0.00 | 0.00 | 0.00 | 62 | 1006.3 |
| 20260506202630 | 35 | 315 | 0.0 | 0.0 | 0.00 | 0.00 | 0.00 | 61 | 1006.4 |
| 20260506202130 | 36 | 315 | 0.0 | 0.0 | 0.00 | 0.00 | 0.00 | 61 | 1006.3 |
| 20260506201630 | 36 | 315 | 0.0 | 0.0 | 0.00 | 0.00 | 0.00 | 60 | 1006.3 |
| 20260506201130 | 36 | 315 | 0.0 | 0.0 | 0.00 | 0.00 | 0.00 | 59 | 1006.3 |
| 20260506200630 | 37 | 315 | 0.0 | 0.0 | 0.00 | 0.00 | 0.00 | 59 | 1006.3 |
| 20260506200130 | 37 | 315 | 0.0 | 0.0 | 0.00 | 0.00 | 0.00 | 58 | 1006.4 |
| 20260506195630 | 37 | 315 | 0.0 | 0.0 | 0.00 | 0.00 | 0.00 | 57 | 1006.3 |
| 20260506195130 | 38 | 315 | 0.0 | 0.0 | 0.00 | 0.00 | 0.00 | 57 | 1006.3 |
| 20260506194630 | 39 | 315 | 0.0 | 0.0 | 0.00 | 0.00 | 0.00 | 56 | 1006.3 |
| 20260506194130 | 39 | 315 | 0.0 | 0.0 | 0.00 | 0.00 | 0.00 | 55 | 1006.2 |
| 20260506193630 | 39 | 315 | 0.0 | 0.0 | 0.00 | 0.00 | 0.00 | 55 | 1006.1 |
| 20260506193130 | 40 | 315 | 0.0 | 0.0 | 0.00 | 0.00 | 0.00 | 54 | 1006.1 |
| 20260506192630 | 40 | 315 | 0.0 | 0.0 | 0.00 | 0.00 | 0.00 | 54 | 1006.2 |
| 20260506192130 | 41 | 315 | 0.0 | 0.0 | 0.00 | 0.00 | 0.00 | 54 | 1006.1 |
| 20260506191630 | 41 | 315 | 0.0 | 0.0 | 0.00 | 0.00 | 0.00 | 53 | 1006.0 |
| 20260506191130 | 41 | 315 | 0.0 | 0.0 | 0.00 | 0.00 | 0.00 | 53 | 1006.1 |
| 20260506190630 | 42 | 315 | 0.0 | 0.0 | 0.00 | 0.00 | 0.00 | 52 | 1006.0 |
| 20260506190130 | 42 | 315 | 0.0 | 0.0 | 0.00 | 0.00 | 0.00 | 52 | 1006.0 |
| 20260506185630 | 42 | 315 | 0.0 | 0.0 | 0.00 | 0.00 | 0.00 | 52 | 1006.0 |
| 20260506185130 | 43 | 315 | 0.0 | 0.0 | 0.00 | 0.00 | 0.00 | 51 | 1005.9 |
| 20260506184630 | 43 | 315 | 0.0 | 0.0 | 0.00 | 0.00 | 0.00 | 50 | 1005.9 |
| 20260506184130 | 44 | 315 | 0.0 | 0.0 | 0.00 | 0.00 | 0.00 | 49 | 1006.0 |
| 20260506183630 | 44 | 315 | 0.0 | 0.0 | 0.00 | 0.00 | 0.00 | 49 | 1005.9 |
| 20260506183130 | 45 | 315 | 0.0 | 0.0 | 0.00 | 0.00 | 0.00 | 48 | 1006.0 |
| 20260506182630 | 45 | 315 | 0.0 | 0.0 | 0.00 | 0.00 | 0.00 | 48 | 1005.9 |
| 20260506182130 | 46 | 315 | 0.0 | 0.0 | 0.00 | 0.00 | 0.00 | 47 | 1005.9 |
| 20260506181630 | 46 | 315 | 0.0 | 0.0 | 0.00 | 0.00 | 0.00 | 47 | 1006.0 |
| 20260506181130 | 46 | 315 | 0.0 | 0.0 | 0.00 | 0.00 | 0.00 | 47 | 1006.0 |
| 20260506180630 | 46 | 315 | 0.0 | 0.0 | 0.00 | 0.00 | 0.00 | 46 | 1006.0 |
| 20260506180130 | 47 | 315 | 0.0 | 0.0 | 0.00 | 0.00 | 0.00 | 46 | 1005.9 |
| 20260506175630 | 47 | 315 | 0.0 | 0.0 | 0.00 | 0.00 | 0.00 | 45 | 1005.9 |
| 20260506175130 | 48 | 315 | 0.0 | 0.0 | 0.00 | 0.00 | 0.00 | 44 | 1005.9 |
| 20260506174630 | 48 | 315 | 0.0 | 0.0 | 0.00 | 0.00 | 0.00 | 44 | 1005.9 |
| 20260506174130 | 49 | 315 | 0.0 | 0.0 | 0.00 | 0.00 | 0.00 | 44 | 1005.8 |
| 20260506173630 | 50 | 315 | 0.0 | 0.0 | 0.00 | 0.00 | 0.00 | 43 | 1005.8 |
| 20260506173130 | 50 | 315 | 0.0 | 0.0 | 0.00 | 0.00 | 0.00 | 43 | 1005.8 |
| 20260506172630 | 50 | 315 | 0.0 | 0.0 | 0.00 | 0.00 | 0.00 | 43 | 1005.8 |
| 20260506172130 | 50 | 315 | 0.0 | 0.0 | 0.00 | 0.00 | 0.00 | 42 | 1005.7 |
| 20260506171630 | 50 | 292 | 0.0 | 0.0 | 0.00 | 0.00 | 0.00 | 42 | 1005.7 |
| 20260506171130 | 51 | 292 | 0.0 | 0.0 | 0.00 | 0.00 | 0.00 | 41 | 1005.8 |
| 20260506170630 | 52 | 292 | 0.0 | 0.0 | 0.00 | 0.00 | 0.00 | 40 | 1005.9 |
| 20260506170130 | 53 | 270 | 0.0 | 0.0 | 0.00 | 0.00 | 0.00 | 39 | 1005.9 |
| 20260506165630 | 53 | 315 | 0.0 | 0.0 | 0.00 | 0.00 | 0.00 | 38 | 1005.9 |
| 20260506165131 | 54 | 315 | 0.0 | 0.0 | 0.00 | 0.00 | 0.00 | 38 | 1005.9 |
| 20260506164631 | 54 | 315 | 0.0 | 0.0 | 0.00 | 0.00 | 0.00 | 37 | 1005.8 |
| 20260506164131 | 54 | 292 | 0.0 | 0.0 | 0.00 | 0.00 | 0.00 | 37 | 1005.8 |
| 20260506163631 | 53 | 292 | 0.0 | 0.0 | 0.00 | 0.00 | 0.00 | 37 | 1005.8 |
| 20260506163131 | 53 | 292 | 0.0 | 0.0 | 0.00 | 0.00 | 0.00 | 35 | 1005.7 |
| 20260506162631 | 54 | 270 | 0.0 | 0.0 | 0.00 | 0.00 | 0.00 | 34 | 1005.8 |
| 20260506162131 | 56 | 292 | 0.0 | 0.0 | 0.00 | 0.00 | 0.00 | 33 | 1005.8 |
| 20260506161631 | 58 | 270 | 0.0 | 0.0 | 0.00 | 0.00 | 0.00 | 32 | 1005.7 |
| 20260506161131 | 60 | 270 | 0.0 | 0.0 | 0.00 | 0.00 | 0.00 | 31 | 1005.6 |
| 20260506160631 | 63 | 315 | 0.0 | 0.0 | 0.00 | 0.00 | 0.00 | 29 | 1005.7 |
| 20260506160131 | 65 | 202 | 0.0 | 0.0 | 0.00 | 0.00 | 0.00 | 30 | 1005.7 |
| 20260506155631 | 65 | 247 | 0.0 | 0.0 | 0.00 | 0.00 | 0.00 | 31 | 1005.6 |
| 20260506155131 | 63 | 247 | 0.0 | 0.0 | 0.00 | 0.00 | 0.00 | 32 | 1005.7 |
| 20260506154631 | 61 | 315 | 0.0 | 0.0 | 0.00 | 0.00 | 0.00 | 33 | 1005.7 |
| 20260506154131 | 59 | 315 | 0.0 | 0.0 | 0.00 | 0.00 | 0.00 | 35 | 1005.7 |
| 20260506153631 | 59 | 315 | 0.0 | 0.0 | 0.00 | 0.00 | 0.00 | 35 | 1005.6 |
| 20260506153131 | 57 | 337 | 0.0 | 0.0 | 0.00 | 0.00 | 0.00 | 36 | 1005.6 |
| 20260506152631 | 56 | 292 | 0.0 | 0.0 | 0.00 | 0.00 | 0.00 | 37 | 1005.6 |
| 20260506152131 | 55 | 292 | 0.0 | 0.0 | 0.00 | 0.00 | 0.00 | 37 | 1005.7 |
| 20260506151631 | 55 | 292 | 0.0 | 0.0 | 0.00 | 0.00 | 0.00 | 37 | 1005.7 |
| 20260506151131 | 57 | 337 | 0.0 | 0.0 | 0.00 | 0.00 | 0.00 | 36 | 1005.7 |
| 20260506150631 | 57 | 292 | 0.0 | 0.0 | 0.00 | 0.00 | 0.00 | 36 | 1005.6 |
| 20260506150131 | 58 | 45 | 0.0 | 0.0 | 0.00 | 0.00 | 0.00 | 35 | 1005.7 |
| 20260506145631 | 59 | 225 | 0.0 | 0.0 | 0.00 | 0.00 | 0.00 | 34 | 1005.6 |
| 20260506145131 | 59 | 292 | 0.0 | 0.0 | 0.00 | 0.00 | 0.00 | 34 | 1005.7 |
| 20260506144631 | 62 | 157 | 0.0 | 0.0 | 0.00 | 0.00 | 0.00 | 33 | 1005.8 |
| 20260506144131 | 62 | 337 | 0.0 | 0.0 | 0.00 | 0.00 | 0.00 | 34 | 1005.6 |
| 20260506143631 | 61 | 315 | 0.0 | 0.0 | 0.00 | 0.00 | 0.00 | 36 | 1005.8 |
| 20260506143131 | 57 | 22 | 0.0 | 0.0 | 0.00 | 0.00 | 0.00 | 38 | 1005.7 |
| 20260506142631 | 57 | 315 | 0.0 | 0.0 | 0.00 | 0.00 | 0.00 | 37 | 1005.7 |
| 20260506142131 | 57 | 67 | 0.0 | 0.0 | 0.00 | 0.00 | 0.00 | 37 | 1005.7 |
| 20260506141631 | 57 | 337 | 0.0 | 0.0 | 0.00 | 0.00 | 0.00 | 38 | 1005.6 |
| 20260506141131 | 57 | 225 | 0.0 | 2.0 | 0.00 | 0.00 | 0.00 | 37 | 1005.6 |
| 20260506140631 | 57 | 315 | 0.0 | 3.0 | 0.00 | 0.00 | 0.00 | 37 | 1005.6 |
| 20260506140131 | 56 | 337 | 0.0 | 0.0 | 0.00 | 0.00 | 0.00 | 39 | 1005.6 |
| 20260506135631 | 55 | 0 | 0.0 | 0.0 | 0.00 | 0.00 | 0.00 | 41 | 1005.6 |
| 20260506135131 | 53 | 225 | 0.0 | 1.0 | 0.00 | 0.00 | 0.00 | 42 | 1005.6 |
| 20260506134631 | 52 | 202 | 0.0 | 0.0 | 0.00 | 0.00 | 0.00 | 43 | 1005.6 |
| 20260506134131 | 52 | 180 | 0.0 | 0.0 | 0.00 | 0.00 | 0.00 | 42 | 1005.7 |
| 20260506133631 | 52 | 45 | 0.0 | 4.0 | 0.00 | 0.00 | 0.00 | 42 | 1005.7 |
| 20260506133131 | 52 | 315 | 0.0 | 3.0 | 0.00 | 0.00 | 0.00 | 42 | 1005.7 |
| 20260506132631 | 52 | 292 | 0.0 | 0.0 | 0.00 | 0.00 | 0.00 | 42 | 1005.7 |
| 20260506132131 | 52 | 292 | 0.0 | 0.0 | 0.00 | 0.00 | 0.00 | 42 | 1005.6 |
| 20260506131631 | 52 | 90 | 0.0 | 0.0 | 0.00 | 0.00 | 0.00 | 41 | 1005.6 |
| 20260506131131 | 52 | 202 | 0.0 | 2.0 | 0.00 | 0.00 | 0.00 | 41 | 1005.6 |
| 20260506130631 | 53 | 315 | 0.0 | 0.0 | 0.00 | 0.00 | 0.00 | 41 | 1005.5 |
| 20260506130131 | 53 | 270 | 0.0 | 0.0 | 0.00 | 0.00 | 0.00 | 40 | 1005.4 |
| 20260506125631 | 54 | 315 | 0.0 | 0.0 | 0.00 | 0.00 | 0.00 | 40 | 1005.4 |
| 20260506125131 | 54 | 0 | 0.0 | 0.0 | 0.00 | 0.00 | 0.00 | 39 | 1005.5 |
| 20260506124631 | 55 | 292 | 0.0 | 0.0 | 0.00 | 0.00 | 0.00 | 38 | 1005.6 |
| 20260506124131 | 56 | 270 | 0.0 | 0.0 | 0.00 | 0.00 | 0.00 | 36 | 1005.6 |
| 20260506123631 | 58 | 315 | 0.0 | 0.0 | 0.00 | 0.00 | 0.00 | 35 | 1005.4 |
| 20260506123131 | 62 | 45 | 0.0 | 0.0 | 0.00 | 0.00 | 0.00 | 33 | 1005.5 |
| 20260506122631 | 64 | 0 | 0.0 | 2.0 | 0.00 | 0.00 | 0.00 | 31 | 1005.6 |
| 20260506122131 | 66 | 337 | 0.0 | 0.0 | 0.00 | 0.00 | 0.00 | 31 | 1005.6 |
| 20260506121631 | 66 | 270 | 0.0 | 0.0 | 0.00 | 0.00 | 0.00 | 31 | 1005.6 |
| 20260506121131 | 67 | 112 | 0.0 | 0.0 | 0.00 | 0.00 | 0.00 | 31 | 1005.6 |
| 20260506120631 | 66 | 337 | 0.0 | 6.0 | 0.00 | 0.00 | 0.00 | 32 | 1005.6 |
| 20260506120131 | 63 | 315 | 0.0 | 4.0 | 0.00 | 0.00 | 0.00 | 34 | 1005.6 |
| 20260506115631 | 60 | 315 | 0.0 | 0.0 | 0.00 | 0.00 | 0.00 | 38 | 1005.5 |
| 20260506115131 | 54 | 247 | 0.0 | 5.0 | 0.00 | 0.00 | 0.00 | 39 | 1005.6 |
| 20260506114631 | 53 | 270 | 0.0 | 0.0 | 0.00 | 0.00 | 0.00 | 38 | 1005.5 |
| 20260506114131 | 53 | 135 | 0.0 | 0.0 | 0.00 | 0.00 | 0.00 | 36 | 1005.5 |
| 20260506113631 | 54 | 180 | 0.0 | 0.0 | 0.00 | 0.00 | 0.00 | 35 | 1005.6 |
| 20260506113131 | 55 | 270 | 0.0 | 0.0 | 0.00 | 0.00 | 0.00 | 33 | 1005.5 |
| 20260506112631 | 56 | 315 | 0.0 | 0.0 | 0.00 | 0.00 | 0.00 | 32 | 1005.4 |
| 20260506112131 | 57 | 315 | 0.0 | 0.0 | 0.00 | 0.00 | 0.00 | 30 | 1005.4 |
| 20260506111631 | 60 | 315 | 0.0 | 0.0 | 0.00 | 0.00 | 0.00 | 26 | 1005.5 |
| 20260506111131 | 64 | 225 | 0.0 | 4.0 | 0.00 | 0.00 | 0.00 | 22 | 1005.5 |
| 20260506110631 | 71 | 270 | 0.0 | 0.0 | 0.00 | 0.00 | 0.00 | 21 | 1005.3 |
| 20260506110131 | 70 | 270 | 0.0 | 0.0 | 0.00 | 0.00 | 0.00 | 21 | 1005.5 |
| 20260506105632 | 69 | 292 | 0.0 | 0.0 | 0.00 | 0.00 | 0.00 | 22 | 1005.2 |
| 20260506105132 | 68 | 315 | 0.0 | 0.0 | 0.00 | 0.00 | 0.00 | 22 | 1005.4 |
| 20260506104632 | 65 | 315 | 0.0 | 0.0 | 0.00 | 0.00 | 0.00 | 24 | 1005.5 |
| 20260506104132 | 64 | 270 | 0.0 | 6.0 | 0.00 | 0.00 | 0.00 | 24 | 1005.4 |
| 20260506103632 | 68 | 270 | 0.0 | 1.0 | 0.00 | 0.00 | 0.00 | 23 | 1005.1 |
| 20260506103132 | 69 | 315 | 0.0 | 0.0 | 0.00 | 0.00 | 0.00 | 24 | 1005.1 |
| 20260506102632 | 67 | 315 | 0.0 | 0.0 | 0.00 | 0.00 | 0.00 | 24 | 1005.1 |
| 20260506102132 | 66 | 247 | 0.0 | 6.0 | 0.00 | 0.00 | 0.00 | 24 | 1005.2 |
| 20260506101632 | 65 | 337 | 0.0 | 0.0 | 0.00 | 0.00 | 0.00 | 25 | 1005.1 |
| 20260506101132 | 64 | 315 | 0.0 | 4.0 | 0.00 | 0.00 | 0.00 | 26 | 1005.1 |
| 20260506100632 | 63 | 270 | 2.0 | 2.0 | 0.00 | 0.00 | 0.00 | 26 | 1005.1 |
| 20260506100132 | 61 | 315 | 0.0 | 6.0 | 0.00 | 0.00 | 0.00 | 27 | 1005.2 |
| 20260506095632 | 59 | 270 | 0.0 | 2.0 | 0.00 | 0.00 | 0.00 | 28 | 1005.2 |
| 20260506095132 | 58 | 270 | 0.0 | 0.0 | 0.00 | 0.00 | 0.00 | 30 | 1005.3 |
| 20260506094632 | 57 | 292 | 0.0 | 0.0 | 0.00 | 0.00 | 0.00 | 29 | 1005.3 |
| 20260506094132 | 60 | 270 | 0.0 | 0.0 | 0.00 | 0.00 | 0.00 | 29 | 1005.2 |
| 20260506093632 | 60 | 270 | 0.0 | 0.0 | 0.00 | 0.00 | 0.00 | 29 | 1005.0 |
| 20260506093132 | 60 | 270 | 0.0 | 4.0 | 0.00 | 0.00 | 0.00 | 30 | 1004.9 |
| 20260506092632 | 57 | 247 | 0.0 | 0.0 | 0.00 | 0.00 | 0.00 | 32 | 1004.9 |
| 20260506092132 | 55 | 315 | 0.0 | 0.0 | 0.00 | 0.00 | 0.00 | 32 | 1004.9 |
| 20260506091632 | 56 | 270 | 0.0 | 0.0 | 0.00 | 0.00 | 0.00 | 32 | 1004.9 |
| 20260506091132 | 55 | 270 | 0.0 | 4.0 | 0.00 | 0.00 | 0.00 | 32 | 1004.8 |
| 20260506090632 | 54 | 225 | 0.0 | 0.0 | 0.00 | 0.00 | 0.00 | 33 | 1004.8 |
| 20260506090132 | 55 | 292 | 0.0 | 0.0 | 0.00 | 0.00 | 0.00 | 32 | 1004.9 |
| 20260506085632 | 55 | 270 | 0.0 | 0.0 | 0.00 | 0.00 | 0.00 | 32 | 1004.8 |
| 20260506085132 | 55 | 292 | 0.0 | 0.0 | 0.00 | 0.00 | 0.00 | 33 | 1004.8 |
| 20260506084632 | 55 | 270 | 0.0 | 0.0 | 0.00 | 0.00 | 0.00 | 33 | 1004.9 |
| 20260506084132 | 55 | 315 | 0.0 | 0.0 | 0.00 | 0.00 | 0.00 | 33 | 1004.8 |
| 20260506083632 | 57 | 292 | 0.0 | 2.0 | 0.00 | 0.00 | 0.00 | 32 | 1004.9 |
| 20260506083132 | 58 | 292 | 0.0 | 0.0 | 0.00 | 0.00 | 0.00 | 33 | 1004.8 |
| 20260506082632 | 57 | 292 | 0.0 | 4.0 | 0.00 | 0.00 | 0.00 | 33 | 1004.8 |
| 20260506082132 | 55 | 247 | 0.0 | 4.0 | 0.00 | 0.00 | 0.00 | 33 | 1004.8 |
| 20260506081632 | 55 | 270 | 0.0 | 0.0 | 0.00 | 0.00 | 0.00 | 34 | 1004.8 |
| 20260506081132 | 56 | 270 | 0.0 | 0.0 | 0.00 | 0.00 | 0.00 | 33 | 1004.8 |
| 20260506080632 | 58 | 247 | 0.0 | 0.0 | 0.00 | 0.00 | 0.00 | 33 | 1004.7 |
| 20260506080132 | 58 | 202 | 0.0 | 3.0 | 0.00 | 0.00 | 0.00 | 33 | 1004.8 |
| 20260506073132 | 58 | 337 | 0.0 | 0.0 | 0.00 | 0.00 | 0.00 | 34 | 1004.6 |
| 20260506072632 | 58 | 292 | 0.0 | 1.0 | 0.00 | 0.00 | 0.00 | 36 | 1004.4 |
| 20260506072132 | 58 | 315 | 1.0 | 1.0 | 0.00 | 0.00 | 0.00 | 35 | 1004.4 |
| 20260506071632 | 58 | 292 | 0.0 | 5.0 | 0.00 | 0.00 | 0.00 | 35 | 1004.4 |
| 20260506071132 | 59 | 292 | 0.0 | 3.0 | 0.00 | 0.00 | 0.00 | 36 | 1004.5 |
| 20260506070632 | 59 | 247 | 3.0 | 3.0 | 0.00 | 0.00 | 0.00 | 35 | 1004.3 |
| 20260506070132 | 60 | 292 | 0.0 | 3.0 | 0.00 | 0.00 | 0.00 | 35 | 1004.4 |
| 20260506062132 | 59 | 292 | 0.0 | 0.0 | 0.00 | 0.00 | 0.00 | 40 | 1004.2 |
| 20260506061632 | 59 | 337 | 0.0 | 4.0 | 0.00 | 0.00 | 0.00 | 42 | 1004.2 |
| 20260506061132 | 59 | 315 | 0.0 | 3.0 | 0.00 | 0.00 | 0.00 | 43 | 1004.2 |
| 20260506060632 | 59 | 270 | 0.0 | 0.0 | 0.00 | 0.00 | 0.00 | 44 | 1004.1 |
| 20260506060132 | 59 | 292 | 0.0 | 0.0 | 0.00 | 0.00 | 0.00 | 46 | 1004.0 |
| 20260506051133 | 42 | 315 | 0.0 | 0.0 | 0.00 | 0.00 | 0.00 | 71 | 1003.3 |
| 20260506050632 | 41 | 315 | 0.0 | 0.0 | 0.00 | 0.00 | 0.00 | 72 | 1003.1 |
| 20260506050132 | 40 | 337 | 0.0 | 0.0 | 0.00 | 0.00 | 0.00 | 72 | 1003.5 |
| 20260506045133 | 39 | 337 | 0.0 | 0.0 | 0.00 | 0.00 | 0.00 | 73 | 1003.2 |